Location: *
(37.5724°S, 58.0067°E)
Time: 10:35:59
(UTC+00:00)

Cosmos 1980 - Pass Details

Date: 26 January 2021
Orbit: 840 x 846 km, 71.0° (Epoch: 07 March)

Event Time Altitude Azimuth Distance (km) Brightness Sun altitude
Rises 20:54:03 0° 189° (S) 3,441 7.8 -33.4°
Reaches altitude 10° 20:57:14 10° 172° (S) 2,498 7.0 -33.3°
Maximum altitude 21:01:21 20° 126° (SE) 1,884 5.9 -33.1°
Enters shadow 21:04:13 14° 90° (E) 2,195 5.9 -33.0°
